This is the latest recevied weather packets stored in our database for station/object KQ7A. If no packets are shown the sender has not sent any weather packets the latest 10 day(s).
| Time | Temp. | Humidity | Pressure | Rain* | Wind** | Luminosity | Snow |
|---|---|---|---|---|---|---|---|
| 1777967860 | 6.67° C | 96% | 1013.6 hPa | 0 mm | - | 0 W/m² | - |
| 1777967558 | 6.67° C | 96% | 1013.5 hPa | 0 mm | - | 0 W/m² | - |
| 1777967255 | 6.67° C | 96% | 1013.3 hPa | 0 mm | - | 0 W/m² | - |
| 1777966952 | 6.67° C | 96% | 1013.5 hPa | 0 mm | - | 0 W/m² | - |
| 1777966650 | 6.67° C | 96% | 1013.5 hPa | 0 mm | - | 0 W/m² | - |
| 1777966347 | 6.67° C | 96% | 1013.3 hPa | 0 mm | - | 0 W/m² | - |
| 1777966044 | 6.67° C | 96% | 1013.5 hPa | 0 mm | - | 0 W/m² | - |
| 1777965740 | 6.67° C | 96% | 1013.2 hPa | 0 mm | - | 0 W/m² | - |
| 1777965436 | 6.67° C | 96% | 1013.2 hPa | 0 mm | - | 0 W/m² | - |
| 1777965133 | 6.67° C | 96% | 1013.1 hPa | 0 mm | - | 0 W/m² | - |
| 1777964830 | 6.67° C | 96% | 1013.2 hPa | 0 mm | - | 0 W/m² | - |
| 1777964526 | 6.67° C | 96% | 1012.9 hPa | 0 mm | - | 0 W/m² | - |
| 1777964223 | 6.67° C | 96% | 1013.3 hPa | 0 mm | - | 0 W/m² | - |
| 1777963920 | 6.67° C | 96% | 1013.1 hPa | 0 mm | - | 0 W/m² | - |
| 1777963616 | 6.67° C | 96% | 1013.1 hPa | 0 mm | - | 0 W/m² | - |
| 1777963315 | 6.67° C | 96% | 1013 hPa | 0 mm | - | 0 W/m² | - |
| 1777963012 | 6.67° C | 96% | 1012.9 hPa | 0 mm | - | 0 W/m² | - |
| 1777962708 | 6.67° C | 96% | 1012.9 hPa | 1.27 mm | - | 0 W/m² | - |
| 1777962404 | 6.67° C | 96% | 1013 hPa | 1.27 mm | - | 0 W/m² | - |
| 1777962102 | 6.67° C | 95% | 1012.9 hPa | 0 mm | - | 0 W/m² | - |
| 1777961799 | 6.67° C | 95% | 1013 hPa | 1.78 mm | - | 0 W/m² | - |
| 1777961497 | 7.22° C | 95% | 1013 hPa | 1.78 mm | - | 0 W/m² | - |
| 1777961194 | 7.22° C | 95% | 1012.6 hPa | 1.27 mm | - | 0 W/m² | - |
| 1777960891 | 6.67° C | 95% | 1012.9 hPa | 1.27 mm | - | 0 W/m² | - |
| 1777960586 | 7.22° C | 95% | 1012.9 hPa | 1.78 mm | - | 0 W/m² | - |
* Rain latest hour (hover to see other rain measurements)
** Current wind speed in m/s (hover to see current wind gust speed)